TimeHST,TemperatureF,Dew PointF,Humidity,Sea Level PressureIn,VisibilityMPH,Wind Direction,Wind SpeedMPH,Gust SpeedMPH,PrecipitationIn,Events,Conditions,WindDirDegrees,DateUTC
12:56 AM,59.9,54.9,83,30.00,10.0,North,11.5,-,N/A,,Clear,360,2013-04-02 10:56:00
1:56 AM,61.0,54.9,80,29.99,10.0,North,12.7,-,N/A,,Clear,360,2013-04-02 11:56:00
2:56 AM,59.9,54.0,81,29.98,10.0,North,13.8,-,N/A,,Clear,10,2013-04-02 12:56:00
3:56 AM,59.9,52.0,75,29.98,10.0,NNE,12.7,-,N/A,,Clear,20,2013-04-02 13:56:00
4:56 AM,59.9,54.0,81,29.98,10.0,North,13.8,-,N/A,,Clear,10,2013-04-02 14:56:00
5:56 AM,59.0,54.9,86,30.01,10.0,North,10.4,-,N/A,,Clear,10,2013-04-02 15:56:00
6:56 AM,59.9,54.0,81,30.02,10.0,NNE,11.5,-,N/A,,Clear,20,2013-04-02 16:56:00
7:56 AM,65.8,52.9,63,30.05,10.0,North,9.2,-,N/A,,Clear,350,2013-04-02 17:56:00
8:56 AM,70.9,50.9,49,30.05,10.0,NNW,11.5,-,N/A,,Clear,340,2013-04-02 18:56:00
9:56 AM,72.0,52.9,51,30.06,10.0,WNW,12.7,-,N/A,,Scattered Clouds,300,2013-04-02 19:56:00
10:56 AM,69.8,53.6,56,30.10,10.0,ESE,11.5,-,N/A,,Overcast,120,2013-04-02 20:56:00
11:56 AM,70.9,52.9,53,30.06,10.0,Calm,Calm,-,N/A,,Overcast,0,2013-04-02 21:56:00
12:56 PM,70.0,54.0,57,30.04,10.0,Variable,3.5,-,N/A,,Overcast,0,2013-04-02 22:56:00
1:56 PM,73.4,53.6,50,30.05,10.0,NE,4.6,-,N/A,,Mostly Cloudy,40,2013-04-02 23:56:00
2:56 PM,70.9,54.0,55,30.00,10.0,Variable,5.8,-,N/A,,Overcast,0,2013-04-03 00:56:00
3:56 PM,70.9,54.9,57,29.99,10.0,NE,10.4,-,N/A,,Mostly Cloudy,40,2013-04-03 01:56:00
4:56 PM,69.8,51.8,53,30.04,10.0,NE,12.7,20.7,N/A,,Partly Cloudy,40,2013-04-03 02:56:00
5:56 PM,66.9,52.9,61,30.02,10.0,NE,15.0,23.0,N/A,,Clear,40,2013-04-03 03:56:00
6:56 PM,63.9,54.0,70,30.04,10.0,NE,18.4,25.3,N/A,,Clear,40,2013-04-03 04:56:00
7:56 PM,62.6,53.6,72,30.08,10.0,NE,17.3,24.2,N/A,,Clear,40,2013-04-03 05:56:00
8:56 PM,63.0,54.0,72,30.06,10.0,NE,11.5,21.9,N/A,,Clear,40,2013-04-03 06:56:00
9:56 PM,63.0,55.9,78,30.08,10.0,NE,15.0,-,N/A,,Clear,40,2013-04-03 07:56:00
10:56 PM,63.0,56.8,80,30.08,10.0,NNE,11.5,-,N/A,,Clear,30,2013-04-03 08:56:00
11:56 PM,63.0,56.8,80,30.06,10.0,NE,13.8,-,N/A,,Clear,40,2013-04-03 09:56:00